| time (UTC) | temp F | wind direction | speed MPH | gust MPH | rain 1hr in | rain 24hr in | rain mn in | humidity % | barometer mb |
| 20260510182431 | 61 | 170 | 1.0 | 8.0 | 0.00 | 0.30 | 0.04 | 73 | 1011.7 |
| 20260510181918 | 61 | 175 | 0.0 | 4.0 | 0.00 | 0.30 | 0.04 | 73 | 1011.6 |
| 20260510181535 | 60 | 236 | 0.0 | 5.0 | 0.00 | 0.16 | 0.04 | 77 | 1011.6 |
| 20260510181358 | 61 | 292 | 1.0 | 5.0 | 0.00 | 0.30 | 0.04 | 77 | 1011.5 |
| 20260510180859 | 60 | 151 | 1.0 | 5.0 | 0.00 | 0.30 | 0.04 | 76 | 1011.5 |
| 20260510180352 | 60 | 199 | 1.0 | 5.0 | 0.00 | 0.30 | 0.04 | 76 | 1011.6 |
| 20260510180035 | 59 | 335 | 1.0 | 7.0 | 0.01 | 0.16 | 0.04 | 76 | 1011.7 |
| 20260510175835 | 60 | 315 | 0.0 | 5.0 | 0.00 | 0.30 | 0.04 | 77 | 1011.7 |
| 20260510175334 | 59 | 51 | 0.0 | 1.0 | 0.00 | 0.30 | 0.04 | 80 | 1011.6 |
| 20260510174822 | 59 | 37 | 1.0 | 4.0 | 0.00 | 0.30 | 0.04 | 78 | 1011.6 |
| 20260510174538 | 58 | 127 | 0.0 | 5.0 | 0.02 | 0.22 | 0.04 | 80 | 1011.5 |
| 20260510174316 | 59 | 177 | 0.0 | 4.0 | 0.00 | 0.30 | 0.04 | 81 | 1011.5 |
| 20260510173814 | 59 | 313 | 0.0 | 4.0 | 0.00 | 0.30 | 0.04 | 84 | 1011.6 |
| 20260510173307 | 58 | 138 | 1.0 | 2.0 | 0.00 | 0.30 | 0.04 | 87 | 1011.6 |
| 20260510173038 | 57 | 309 | 1.0 | 8.0 | 0.02 | 0.22 | 0.04 | 85 | 1011.7 |
| 20260510172809 | 57 | 128 | 1.0 | 2.0 | 0.00 | 0.30 | 0.04 | 84 | 1011.7 |
| 20260510171538 | 56 | 0 | 0.0 | 4.0 | 0.03 | 0.22 | 0.04 | 89 | 1011.9 |
| 20260510170035 | 56 | 211 | 2.0 | 10.0 | 0.02 | 0.20 | 0.02 | 83 | 1012.0 |
| 20260510164534 | 57 | 0 | 1.0 | 3.0 | 0.02 | 0.28 | 0.02 | 86 | 1011.8 |
| 20260510163035 | 57 | 0 | 0.0 | 0.0 | 0.02 | 0.28 | 0.02 | 88 | 1011.9 |
| 20260510161534 | 57 | 0 | 0.0 | 5.0 | 0.00 | 0.26 | 0.00 | 80 | 1011.9 |
| 20260510160039 | 57 | 104 | 0.0 | 2.0 | 0.00 | 0.26 | 0.00 | 80 | 1011.7 |
| 20260510154537 | 58 | 247 | 1.0 | 4.0 | 0.00 | 0.27 | 0.00 | 77 | 1011.6 |
| 20260510153036 | 57 | 161 | 1.0 | 6.0 | 0.00 | 0.27 | 0.00 | 82 | 1011.5 |
| 20260510151535 | 57 | 0 | 0.0 | 5.0 | 0.00 | 0.27 | 0.00 | 81 | 1011.1 |
| 20260510150041 | 57 | 155 | 2.0 | 7.0 | 0.00 | 0.27 | 0.00 | 79 | 1011.1 |
| 20260510144600 | 57 | 8 | 2.0 | 7.0 | 0.00 | 0.28 | 0.00 | 81 | 1011.1 |
| 20260510143035 | 56 | 134 | 2.0 | 7.0 | 0.00 | 0.28 | 0.00 | 81 | 1011.1 |
| 20260510141537 | 55 | 155 | 1.0 | 8.0 | 0.00 | 0.28 | 0.00 | 85 | 1011.1 |
| 20260510140035 | 54 | 142 | 0.0 | 5.0 | 0.00 | 0.28 | 0.00 | 88 | 1011.4 |
| 20260510134539 | 53 | 158 | 1.0 | 10.0 | 0.00 | 0.28 | 0.00 | 90 | 1011.5 |
| 20260510133045 | 52 | 105 | 1.0 | 8.0 | 0.00 | 0.28 | 0.00 | 91 | 1011.5 |
| 20260510131537 | 52 | 145 | 1.0 | 5.0 | 0.00 | 0.28 | 0.00 | 91 | 1011.1 |
| 20260510130037 | 51 | 98 | 1.0 | 10.0 | 0.00 | 0.28 | 0.00 | 94 | 1011.2 |
| 20260510124537 | 50 | 108 | 0.0 | 8.0 | 0.00 | 0.28 | 0.00 | 94 | 1011.1 |
| 20260510123035 | 50 | 70 | 1.0 | 7.0 | 0.00 | 0.28 | 0.00 | 95 | 1011.4 |
| 20260510121532 | 49 | 61 | 2.0 | 8.0 | 0.00 | 0.28 | 0.00 | 95 | 1011.3 |
| 20260510120036 | 49 | 135 | 0.0 | 5.0 | 0.00 | 0.28 | 0.00 | 96 | 1011.4 |
| 20260510114600 | 49 | 0 | 0.0 | 4.0 | 0.00 | 0.28 | 0.00 | 96 | 1011.0 |
| 20260510113050 | 49 | 0 | 0.0 | 9.0 | 0.00 | 0.28 | 0.00 | 96 | 1010.8 |
| 20260510111538 | 49 | 324 | 2.0 | 9.0 | 0.00 | 0.28 | 0.00 | 96 | 1010.8 |
| 20260510110038 | 49 | 92 | 0.0 | 7.0 | 0.00 | 0.28 | 0.00 | 97 | 1010.8 |
| 20260510104543 | 48 | 139 | 1.0 | 5.0 | 0.00 | 0.28 | 0.00 | 96 | 1010.3 |
| 20260510103038 | 47 | 0 | 0.0 | 0.0 | 0.00 | 0.28 | 0.00 | 96 | 1010.1 |
| 20260510101535 | 47 | 0 | 0.0 | 0.0 | 0.00 | 0.28 | 0.00 | 96 | 1009.9 |
| 20260510100050 | 47 | 0 | 0.0 | 0.0 | 0.00 | 0.28 | 0.00 | 96 | 1009.3 |
| 20260510094537 | 47 | 0 | 0.0 | 0.0 | 0.00 | 0.28 | 0.00 | 96 | 1009.2 |
| 20260510093035 | 47 | 0 | 0.0 | 4.0 | 0.00 | 0.28 | 0.00 | 96 | 1009.4 |
| 20260510091537 | 47 | 0 | 0.0 | 0.0 | 0.00 | 0.28 | 0.00 | 96 | 1009.2 |
| 20260510091459 | 48 | 110 | 0.0 | 0.0 | 0.00 | 0.27 | 0.00 | 96 | 1009.2 |
| 20260510090035 | 47 | 0 | 0.0 | 2.0 | 0.00 | 0.28 | 0.00 | 96 | 1009.1 |
| 20260510084536 | 47 | 133 | 0.0 | 2.0 | 0.00 | 0.28 | 0.00 | 96 | 1009.7 |
| 20260510083042 | 47 | 0 | 0.0 | 1.0 | 0.00 | 0.28 | 0.00 | 96 | 1009.8 |
| 20260510081536 | 47 | 0 | 0.0 | 1.0 | 0.00 | 0.28 | 0.00 | 96 | 1009.8 |
| 20260510080035 | 47 | 0 | 0.0 | 4.0 | 0.00 | 0.28 | 0.00 | 96 | 1009.9 |
| 20260510074542 | 47 | 0 | 0.0 | 3.0 | 0.00 | 0.28 | 0.00 | 96 | 1009.8 |
| 20260510073037 | 47 | 0 | 0.0 | 2.0 | 0.00 | 0.28 | 0.00 | 96 | 1009.8 |
| 20260510071536 | 46 | 0 | 0.0 | 2.0 | 0.00 | 0.28 | 0.00 | 96 | 1009.7 |
| 20260510070047 | 46 | 0 | 0.0 | 0.0 | 0.00 | 0.28 | 0.00 | 96 | 1009.7 |
| 20260510064534 | 46 | 0 | 0.0 | 0.0 | 0.00 | 0.28 | 0.00 | 96 | 1009.9 |
| 20260510063042 | 46 | 0 | 0.0 | 0.0 | 0.00 | 0.28 | 0.00 | 96 | 1009.8 |
| 20260510061538 | 46 | 0 | 0.0 | 0.0 | 0.00 | 0.28 | 0.00 | 96 | 1009.9 |
| 20260510060041 | 46 | 0 | 0.0 | 0.0 | 0.00 | 0.28 | 0.00 | 95 | 1010.0 |
| 20260510054542 | 45 | 0 | 0.0 | 0.0 | 0.00 | 0.28 | 0.00 | 96 | 1010.2 |
| 20260510053036 | 45 | 0 | 0.0 | 0.0 | 0.00 | 0.28 | 0.00 | 95 | 1010.3 |
| 20260510051537 | 45 | 0 | 0.0 | 3.0 | 0.00 | 0.28 | 0.00 | 95 | 1010.1 |
| 20260510050035 | 45 | 0 | 0.0 | 7.0 | 0.00 | 0.28 | 0.00 | 96 | 1010.5 |
| 20260510044537 | 45 | 190 | 0.0 | 4.0 | 0.00 | 0.28 | 0.00 | 95 | 1010.6 |
| 20260510043037 | 45 | 0 | 0.0 | 2.0 | 0.00 | 0.28 | 0.00 | 95 | 1010.4 |
| 20260510041546 | 44 | 0 | 0.0 | 1.0 | 0.00 | 0.28 | 0.00 | 95 | 1010.4 |
| 20260510040034 | 44 | 0 | 0.0 | 3.0 | 0.00 | 0.28 | 0.00 | 95 | 1010.5 |
| 20260510034535 | 44 | 0 | 0.0 | 4.0 | 0.00 | 0.28 | 0.28 | 95 | 1010.5 |
| 20260510033039 | 44 | 0 | 0.0 | 6.0 | 0.00 | 0.28 | 0.28 | 95 | 1010.4 |
| 20260510031538 | 45 | 225 | 1.0 | 5.0 | 0.00 | 0.28 | 0.28 | 95 | 1010.4 |
| 20260510030036 | 44 | 0 | 0.0 | 2.0 | 0.00 | 0.28 | 0.28 | 95 | 1010.7 |
| 20260510024534 | 44 | 0 | 0.0 | 3.0 | 0.00 | 0.28 | 0.28 | 95 | 1010.5 |
| 20260510023035 | 45 | 0 | 0.0 | 4.0 | 0.00 | 0.28 | 0.28 | 95 | 1010.8 |
| 20260510021539 | 44 | 0 | 0.0 | 2.0 | 0.00 | 0.28 | 0.28 | 95 | 1010.9 |
| 20260510020036 | 44 | 0 | 0.0 | 6.0 | 0.00 | 0.28 | 0.28 | 95 | 1010.8 |
| 20260510014536 | 44 | 0 | 0.0 | 5.0 | 0.00 | 0.28 | 0.28 | 95 | 1011.0 |
| 20260510013039 | 44 | 0 | 0.0 | 0.0 | 0.00 | 0.28 | 0.28 | 95 | 1010.8 |
| 20260510011535 | 44 | 92 | 0.0 | 4.0 | 0.00 | 0.28 | 0.28 | 95 | 1010.8 |
| 20260510010036 | 44 | 0 | 0.0 | 3.0 | 0.00 | 0.28 | 0.28 | 95 | 1010.9 |
| 20260510004536 | 44 | 0 | 0.0 | 7.0 | 0.00 | 0.28 | 0.28 | 95 | 1010.9 |
| 20260510003051 | 44 | 0 | 1.0 | 4.0 | 0.00 | 0.28 | 0.28 | 94 | 1010.7 |
| 20260510001541 | 45 | 0 | 0.0 | 0.0 | 0.00 | 0.28 | 0.28 | 94 | 1010.6 |
| 20260510000039 | 45 | 0 | 0.0 | 0.0 | 0.00 | 0.28 | 0.28 | 94 | 1010.2 |
| 20260509234545 | 45 | 171 | 0.0 | 2.0 | 0.00 | 0.28 | 0.28 | 94 | 1010.1 |
| 20260509233034 | 45 | 0 | 0.0 | 2.0 | 0.00 | 0.28 | 0.28 | 94 | 1010.0 |
| 20260509231536 | 45 | 0 | 0.0 | 4.0 | 0.00 | 0.28 | 0.28 | 94 | 1010.1 |
| 20260509230036 | 45 | 0 | 0.0 | 2.0 | 0.00 | 0.28 | 0.28 | 94 | 1010.2 |
| 20260509224536 | 45 | 0 | 0.0 | 1.0 | 0.00 | 0.28 | 0.28 | 94 | 1010.3 |
| 20260509223035 | 45 | 228 | 0.0 | 3.0 | 0.00 | 0.28 | 0.28 | 94 | 1010.3 |
| 20260509221536 | 45 | 311 | 0.0 | 1.0 | 0.00 | 0.28 | 0.28 | 94 | 1010.3 |
| 20260509220052 | 45 | 0 | 0.0 | 0.0 | 0.00 | 0.28 | 0.28 | 94 | 1010.6 |
| 20260509214935 | 46 | 108 | 0.0 | 0.0 | 0.00 | 0.02 | 0.27 | 94 | 1010.6 |
| 20260509214540 | 45 | 0 | 0.0 | 3.0 | 0.01 | 0.28 | 0.28 | 94 | 1010.7 |
| 20260509213041 | 45 | 0 | 0.0 | 1.0 | 0.01 | 0.28 | 0.28 | 94 | 1010.8 |
| 20260509211543 | 45 | 0 | 0.0 | 1.0 | 0.01 | 0.28 | 0.28 | 94 | 1010.8 |
| 20260509210036 | 45 | 278 | 0.0 | 3.0 | 0.00 | 0.27 | 0.27 | 93 | 1010.8 |
| 20260509204542 | 46 | 0 | 0.0 | 1.0 | 0.00 | 0.27 | 0.27 | 93 | 1010.7 |
| 20260509203037 | 46 | 0 | 0.0 | 2.0 | 0.00 | 0.27 | 0.27 | 93 | 1010.8 |
| 20260509201534 | 46 | 0 | 0.0 | 3.0 | 0.01 | 0.27 | 0.27 | 93 | 1010.9 |
| 20260509200041 | 46 | 121 | 1.0 | 6.0 | 0.03 | 0.27 | 0.27 | 93 | 1010.8 |
| 20260509194541 | 46 | 0 | 0.0 | 4.0 | 0.05 | 0.27 | 0.27 | 94 | 1010.9 |
| 20260509193041 | 46 | 227 | 1.0 | 5.0 | 0.07 | 0.27 | 0.27 | 93 | 1011.1 |
| 20260509191536 | 46 | 0 | 0.0 | 5.0 | 0.08 | 0.26 | 0.26 | 93 | 1011.2 |
| 20260509190039 | 45 | 0 | 0.0 | 3.0 | 0.06 | 0.23 | 0.23 | 93 | 1011.4 |
| 20260509184538 | 46 | 160 | 0.0 | 4.0 | 0.07 | 0.22 | 0.22 | 93 | 1011.6 |
| 20260509183035 | 46 | 0 | 0.0 | 3.0 | 0.07 | 0.20 | 0.20 | 93 | 1011.5 |